Regional Weather Roundup
Issued by NWS

Home | Current Version | Previous Version | Graphics & Text | Print | Product List | Glossary On
Versions: 1 2 3 4 5 6 7 8 9 10 11 12 13 14 15 16 17 18 19 20 21 22 23 24 25 26 27 28
000
ASUS45 KTFX 040210
RWRMT
MONTANA REGIONAL WEATHER ROUNDUP
NATIONAL WEATHER SERVICE GREAT FALLS MT
800 PM MDT TUE MAY 03 2016

NOTE: "FAIR" INDICATES FEW OR NO CLOUDS BELOW 12000 FEET WITH NO
SIGNIFICANT WEATHER AND/OR OBSTRUCTIONS TO VISIBILITY.

MTZ001>007-043-040300-
WEST OF THE DIVIDE

CITY           SKY/WX    TMP DP  RH WIND       PRES   REMARKS
KALISPELL      CLEAR     73  43  33 S6        29.97F
MISSOULA       CLEAR     79  33  19 CALM      29.98F
BUTTE          CLEAR     70  21  15 SW5       30.11F
MULLAN PASS    CLEAR     61  24  24 VRB5      30.14F
$$

MTZ008-052>055-040300-
SOUTHWEST MONTANA

CITY           SKY/WX    TMP DP  RH WIND       PRES   REMARKS
BOZEMAN        CLEAR     69  36  29 SE6       30.08F
DILLON         CLEAR     69  24  18 SE10      30.09F
ENNIS          CLEAR     70  28  21 CALM      30.17S
$$

MTZ009-010-012-014-046-048-049-054-040300-
EAST SLOPES AND CENTRAL MONTANA

CITY           SKY/WX    TMP DP  RH WIND       PRES   REMARKS
CUT BANK         N/A     70  34  26 W9        30.01F
GREAT FALLS    CLEAR     71  40  32 SE7       30.02F
MALMSTROM AFB  CLEAR     71  38  29 E5        30.01F
HELENA         CLEAR     75  32  20 SE10      30.02F
$$

MTZ011-013-016-021-045-047-050-051-040300-
NORTH CENTRAL MONTANA

CITY           SKY/WX    TMP DP  RH WIND       PRES   REMARKS
HAVRE          CLEAR     75  49  39 E3        29.99S
LEWISTOWN      CLEAR     69  40  34 E13       30.08S
N BAR RANCH      N/A     63  41  45 E7        30.13S
$$

MTZ017>020-022>027-061-062-040300-
NORTHEAST MONTANA

CITY           SKY/WX    TMP DP  RH WIND       PRES   REMARKS
GLASGOW        CLEAR     73  38  27 S6        30.02F
JORDAN           N/A     71  42  35 E5        30.05S
SIDNEY         CLEAR     72  39  30 NE7       30.03S
WOLF POINT     CLEAR     75  41  29 SW5       30.02S
$$

MTZ028>42-056>058-040300-
SOUTHCENTRAL AND SOUTHEAST MONTANA

CITY           SKY/WX    TMP DP  RH WIND       PRES   REMARKS
BAKER          CLEAR     67  41  38 NE7       30.09R
BILLINGS       CLEAR     71  35  26 E10       30.09S
LIVINGSTON     CLEAR     73  33  23 CALM      30.08F
MILES CITY     CLEAR     75  36  24 CALM      30.05S
$$

REGIONAL REPORTS...DAKOTAS

CITY           SKY/WX    TMP DP  RH WIND       PRES   REMARKS
WILLISTON      CLEAR     71  41  33 NE5       30.03S
MINOT          CLEAR     62  28  27 N6        30.02R
DICKINSON      CLEAR     63  38  39 NE5       30.04R
BEACH            N/A     64  37  36 NW6       30.10R
CROSBY           N/A     64  37  36 E5        30.05S
TIOGA            N/A     63  36  36 NE6       30.10R
WATFORD CITY     N/A     68  39  34 E7        30.05R
BISMARCK       CLEAR     65  26  23 N14       30.01R
GRAND FORKS    CLEAR     55  31  39 N17       29.96R
FARGO          CLEAR     60  26  27 N21G26    29.92R
BUFFALO SD       N/A     68  37  32 N10       30.02R
RAPID CITY     CLEAR     58  41  53 N8        30.08R
$$

REGIONAL REPORTS...WYOMING/IDAHO/WASHINGTON

CITY           SKY/WX    TMP DP  RH WIND       PRES   REMARKS
GILLETTE       CLEAR     58  42  55 NW5       30.15R
SHERIDAN       CLEAR     62  46  55 SW6       30.12F
BUFFALO WY     CLEAR     62  36  37 NW5       30.19S
CODY           CLEAR     68  28  22 E8        30.14S
YELLOWSTONE LA   N/A     52  22  30 CALM      30.31S
IDAHO FALLS    CLEAR     69  27  20 CALM      30.15F
SALMON         CLEAR     72  30  21 CALM      29.99S
BOISE          CLEAR     77  29  17 SE9       30.00F
SPOKANE        MOCLDY    78  35  21 S7        29.95F
$$

REGIONAL REPORTS...ALBERTA

CITY           SKY/WX    TMP DP  RH WIND       PRES   REMARKS
EDMONTON       CLEAR     81  34  18 SW6       29.82F
CALGARY        PTCLDY    77  32  19 S10G17    29.90F
LETHBRIDGE     CLEAR     75  30  19 SW9       29.94S
MEDICINE HAT   CLEAR     75  45  33 SE8       29.92F
WATERTON GATE    N/A     68  34  28 SW7         N/A
MILK RIVER       N/A     72  41  33 S7          N/A
ONEFOUR          N/A     68  43  40 SE8         N/A
$$

REGIONAL REPORTS...SASKATCHEWAN

CITY           SKY/WX    TMP DP  RH WIND       PRES   REMARKS
SWIFT CURRENT  CLEAR     72  37  28 SW8       29.98F HAZE
REGINA         MOCLDY    72  39  30 E7        30.00S
SASKATOON      PTCLDY    73  39  29 S9        29.94F
CYPRESS HILLS    N/A     66  34  30 S7          N/A
VAL MARIE        N/A     70  39  32 S8          N/A
ROCKGLEN         N/A     72  34  25 S3          N/A
$$




USA.gov is the U.S. government's official web portal to all federal, state and local government web resources and services.